Theta_e
320 314 310 311 299 296 292 297 297 300 301 304 308 310 314 317 316 309 331 335 340 342 345 346 347 349 349 348 348 348 348 347 347 347 346 346 345 344 344 343 344 341 338 340 339 338 338 336 338
316 314 312 305 294 289 292 296 297 303 305 306 308 308 310 314 325 327 329 336 339 342 344 344 344 348 348 348 348 347 347 346 345 345 345 344 344 344 345 343 342 340 338 338 338 338 339 336 339
313 313 305 299 293 290 291 296 298 303 304 304 306 312 318 319 325 328 333 336 336 342 343 344 344 348 348 348 347 346 346 346 344 343 343 343 343 341 342 343 342 340 336 336 341 337 336 335 338
305 308 304 294 293 297 295 297 304 302 304 306 305 313 321 323 326 331 335 336 332 339 342 342 345 348 348 348 347 347 346 345 344 342 340 340 341 341 339 337 338 339 337 336 342 341 338 338 337
306 304 294 290 292 295 298 301 303 302 301 302 304 306 316 314 319 333 333 335 332 335 340 341 343 346 347 347 347 347 346 346 345 343 342 341 343 343 341 339 337 338 338 337 342 341 340 338 338
299 298 290 288 291 297 298 301 302 300 301 302 302 305 313 311 310 313 333 333 334 337 341 342 338 341 344 345 346 345 345 345 344 344 343 342 341 339 341 339 337 338 337 337 341 340 339 339 339
298 292 288 290 291 294 298 301 298 298 298 299 303 301 309 303 306 308 328 333 334 337 338 339 341 339 336 340 340 342 343 343 343 343 342 340 339 339 338 337 338 338 338 338 341 339 338 338 339
301 296 292 290 291 292 297 298 299 300 300 305 304 299 304 303 307 307 318 328 332 333 333 336 339 339 338 337 332 335 338 339 339 338 336 334 333 334 334 332 335 338 339 338 339 338 337 338 337
302 292 288 290 291 293 297 295 299 299 297 298 303 301 306 307 309 307 307 309 326 330 333 334 336 338 338 337 335 332 333 334 334 333 330 329 332 331 330 327 331 335 337 338 338 338 335 334 333
295 288 291 293 292 292 296 295 294 294 294 294 297 302 306 306 305 306 305 305 311 312 310 315 332 336 337 338 337 336 338 338 337 335 334 333 331 329 329 324 326 330 331 335 336 337 333 328 328
295 291 294 294 295 295 294 294 294 291 291 294 293 295 301 300 300 301 299 300 304 302 303 305 308 313 323 330 334 336 337 333 334 334 336 333 334 331 329 324 324 325 322 326 331 331 329 324 324
290 295 296 298 297 295 293 294 292 293 294 297 295 295 295 299 298 297 297 296 297 297 298 299 300 303 305 306 307 314 330 331 333 334 333 331 333 331 329 327 326 325 326 324 325 326 326 323 323
291 292 294 295 295 294 295 292 291 292 294 296 296 296 294 294 294 294 295 296 296 295 296 298 298 299 302 303 303 303 304 306 316 328 330 330 330 330 331 327 326 325 326 325 323 324 325 324 322
293 293 292 293 292 293 291 289 290 291 293 294 295 294 294 294 294 292 293 295 295 296 295 298 299 299 300 299 300 301 301 302 303 304 317 328 326 326 326 325 326 326 324 325 324 323 324 324 324
293 288 290 290 291 290 288 286 287 292 294 292 292 292 293 293 294 294 294 294 295 295 297 298 298 299 298 299 300 301 302 304 302 303 305 308 320 324 324 324 324 325 327 326 325 323 323 324 324
287 286 283 288 288 289 286 284 290 291 291 291 291 291 292 293 294 293 294 294 294 295 296 298 301 299 299 298 298 300 301 301 302 303 305 307 308 313 322 322 322 324 324 323 325 324 322 322 323
285 280 283 284 287 287 285 283 289 290 290 289 290 289 290 290 291 292 294 293 294 295 296 297 298 298 298 299 299 299 300 300 301 301 303 305 309 311 311 319 320 320 321 320 321 322 322 321 321
283 280 283 281 285 286 284 285 289 290 290 290 289 289 288 289 290 292 293 293 294 294 295 297 298 297 297 297 297 298 299 300 301 302 303 304 306 309 310 311 312 318 318 318 320 320 322 321 319
283 281 280 284 286 284 283 284 287 289 288 288 288 289 290 289 291 292 293 294 294 294 295 294 294 294 295 296 297 297 298 300 302 303 304 305 306 308 308 309 311 313 316 317 318 318 314 316 319
283 280 280 285 287 283 282 283 288 289 288 288 288 287 288 289 290 292 293 293 294 292 291 292 293 293 293 294 295 296 296 297 299 300 301 301 302 304 307 307 307 309 313 315 316 316 314 313 315
281 281 280 280 283 285 281 281 287 289 287 288 289 288 289 288 289 291 292 291 289 290 291 293 293 293 292 293 293 293 294 294 294 296 297 299 300 301 302 302 304 307 309 311 315 315 314 311 311
279 283 283 282 277 273 280 273 280 287 286 287 287 286 287 288 290 291 291 290 290 290 291 292 293 293 294 293 292 291 291 291 292 293 295 296 297 298 300 301 301 301 302 306 310 315 314 312 309
282 284 282 281 277 271 275 271 279 287 284 286 286 287 286 288 290 290 290 291 291 292 291 292 293 293 293 292 292 291 291 292 293 294 295 295 297 298 298 299 299 300 301 301 302 308 311 312 310
286 282 281 280 275 268 272 274 279 282 284 286 287 287 288 289 289 290 290 291 291 292 291 291 291 291 292 292 293 293 292 292 293 293 293 294 295 296 296 297 298 298 298 298 301 302 304 309 309
284 279 271 272 272 270 277 272 280 285 286 286 287 287 287 288 289 289 288 291 291 290 290 290 290 290 292 293 294 293 293 292 292 292 292 292 292 293 294 295 295 296 297 298 299 300 300 302 304
280 279 276 268 271 273 276 272 282 286 286 286 288 288 288 288 289 288 289 290 290 290 289 289 289 291 293 293 292 292 292 292 292 291 291 291 292 292 293 294 294 295 295 295 296 297 299 299 299
280 277 281 270 264 269 273 280 285 286 285 286 286 287 287 287 288 288 289 289 289 288 288 288 292 292 292 292 292 291 291 292 290 290 291 290 291 292 292 293 292 293 294 294 295 294 295 298 300
282 283 277 277 269 265 273 275 279 281 283 285 286 285 285 286 288 289 289 289 288 288 288 292 291 290 291 292 292 292 291 291 290 290 290 290 291 291 291 291 292 292 292 293 294 293 294 295 296
277 278 279 280 278 270 269 275 283 282 284 285 286 286 287 287 288 288 288 288 287 288 290 290 290 290 292 292 291 290 289 289 289 289 289 290 290 290 290 291 290 290 291 292 292 293 293 293 294
281 280 279 274 272 274 274 273 286 286 286 287 289 289 289 289 289 288 287 286 286 289 289 289 289 289 291 291 290 289 288 288 288 288 289 290 289 290 290 290 290 290 291 291 291 291 293 292 293
Wind_Speed
10 10 2 4 4 5 4 6 3 4 4 2 2 7 8 3 3 4 4 6 14 14 13 13 15 15 13 13 12 11 9 9 10 10 9 10 9 10 10 9 9 6 6 6 6 8 11 8 5
5 7 4 2 4 2 6 4 4 4 4 3 4 2 4 2 3 7 4 4 13 13 13 12 14 15 14 14 13 12 11 10 9 8 8 8 8 8 10 9 9 9 6 5 7 6 10 8 6
5 4 4 3 3 5 3 2 7 4 4 3 2 5 4 4 4 5 5 7 12 12 13 12 13 15 15 14 13 12 11 10 9 8 7 6 6 3 3 9 9 6 5 6 9 10 5 8 5
3 5 5 4 6 8 4 3 7 3 5 5 3 4 4 3 3 5 5 8 8 12 13 15 15 15 15 14 13 12 12 10 9 8 8 8 7 5 5 3 3 5 5 8 11 12 9 9 6
3 3 2 2 6 7 3 4 5 4 1 2 2 3 3 2 4 7 5 5 8 7 8 13 17 16 15 14 13 13 12 11 10 9 8 8 9 8 8 6 4 5 6 6 8 11 12 10 8
3 3 2 3 6 6 3 3 4 3 3 1 2 6 3 4 4 2 7 6 7 9 9 10 10 11 12 12 13 13 12 11 10 9 9 8 8 7 8 8 7 6 6 6 7 11 13 11 9
4 4 4 4 5 3 1 4 4 2 5 1 1 4 4 3 3 1 5 7 6 9 8 7 7 8 9 10 11 11 11 11 10 10 10 9 9 9 9 8 8 8 7 8 8 8 10 11 9
3 3 4 4 5 1 1 2 2 3 1 2 2 3 5 5 5 1 5 5 7 6 7 7 7 7 6 6 9 9 10 10 10 10 10 8 8 9 9 9 9 9 9 9 9 10 11 10 9
3 4 3 4 6 1 3 3 4 1 1 3 2 2 6 9 7 4 3 3 4 4 6 5 6 8 7 7 8 11 13 13 12 10 10 8 5 6 7 7 9 11 11 11 10 10 11 11 11
4 3 5 1 1 2 5 4 2 2 4 4 4 3 8 9 6 7 5 5 4 5 5 5 1 3 4 3 5 6 6 6 7 7 7 6 5 5 7 9 12 12 12 12 12 12 11 8 4
4 6 2 1 2 4 5 6 4 3 6 9 5 1 6 3 6 7 5 6 6 4 3 4 3 4 3 2 1 2 2 3 3 6 8 7 6 6 6 4 5 6 8 5 8 7 6 6 5
3 6 3 1 2 3 4 6 8 7 9 4 2 3 4 6 6 6 5 4 6 5 5 4 3 2 1 2 1 2 2 2 3 4 6 4 5 6 7 6 6 7 7 8 7 6 7 8 8
3 4 5 5 5 4 3 7 8 13 13 10 9 6 5 7 5 3 4 5 6 4 1 1 3 2 1 2 0 1 2 2 4 4 4 4 5 6 6 5 5 6 8 8 8 8 8 9 10
1 4 7 6 4 4 5 4 3 8 6 7 10 11 8 8 7 3 3 6 4 2 1 3 3 2 1 1 1 2 3 4 3 3 4 5 4 4 4 4 5 4 5 8 9 10 10 10 10
2 5 6 3 2 3 3 6 10 13 3 2 4 5 5 7 7 8 7 6 7 4 5 4 4 4 4 2 2 3 4 3 4 5 5 5 4 5 5 5 4 4 4 5 6 9 10 10 10
2 2 3 1 2 1 2 9 6 2 7 9 8 7 8 7 8 8 8 6 6 6 5 4 4 4 1 2 3 3 3 3 4 5 5 7 7 6 6 5 5 5 5 5 6 6 4 7 9
2 3 5 3 0 2 4 9 6 3 2 7 9 9 9 9 8 8 10 8 8 8 6 5 4 3 3 3 3 3 4 4 5 4 4 7 7 7 5 5 5 6 5 4 5 7 6 8 8
4 3 3 1 1 3 5 19 17 12 14 15 9 9 9 9 10 9 7 8 8 7 7 5 3 1 3 3 3 3 4 5 4 5 5 7 6 7 6 5 6 6 5 5 5 8 8 8 9
2 1 3 3 2 4 5 12 22 9 10 10 8 7 7 7 5 7 8 8 8 6 5 5 5 4 4 2 3 3 4 4 3 4 7 7 6 7 7 5 6 6 8 10 10 8 8 8 7
1 0 5 4 2 2 5 16 19 10 5 4 5 7 7 6 7 7 7 6 5 6 6 6 6 5 3 2 3 2 3 4 4 4 6 6 7 7 6 6 6 6 7 8 10 10 7 7 7
1 3 2 4 6 3 8 9 8 4 2 4 4 4 5 8 8 6 6 5 7 5 4 4 2 5 4 5 3 3 3 3 4 4 4 5 7 8 8 9 6 6 6 8 10 11 13 10 9
3 0 2 3 6 2 5 7 10 6 2 1 1 4 6 6 5 6 6 6 6 4 3 1 3 5 4 5 3 4 3 5 4 4 4 5 7 7 7 7 9 10 9 10 7 10 12 11 10
2 2 3 2 5 5 7 5 12 5 3 2 4 4 5 6 8 7 7 7 5 5 3 2 3 5 6 5 5 4 5 4 4 4 7 6 5 7 7 7 9 9 8 10 12 11 11 12 13
3 3 3 4 4 4 5 5 8 1 4 4 2 5 7 7 6 6 4 4 1 2 3 3 4 4 6 5 6 6 7 7 6 7 8 8 7 6 8 9 10 11 9 9 8 10 13 14 14
2 4 4 6 4 5 2 4 10 9 6 3 4 4 4 5 6 5 2 3 4 3 3 4 4 6 6 6 6 6 7 8 11 11 9 11 8 8 10 9 8 8 8 8 8 9 9 8 9
5 5 5 6 1 4 4 6 3 6 7 7 9 7 7 7 3 2 4 5 3 5 5 5 6 6 6 6 7 6 7 7 8 10 9 10 9 10 13 12 14 14 15 13 10 8 9 13 10
3 2 4 7 2 4 4 7 1 7 9 10 9 9 5 4 2 3 5 2 3 4 4 5 6 6 7 7 7 7 9 13 12 13 11 10 12 11 13 14 14 15 13 13 14 11 11 9 13
1 3 3 3 1 4 6 5 5 4 5 5 6 5 1 1 5 4 4 5 4 3 4 6 5 6 6 8 9 10 12 14 11 11 12 14 14 15 16 16 16 15 16 15 14 12 11 13 11
1 1 1 2 4 5 2 7 6 7 7 4 2 3 5 7 7 5 5 5 4 4 5 6 6 7 8 9 11 10 12 12 13 11 12 13 15 16 16 16 16 16 16 14 14 15 14 15 15
1 4 5 5 5 2 3 8 6 6 7 3 8 5 5 5 7 3 5 4 3 4 6 7 7 7 8 10 10 11 12 12 11 12 13 14 16 17 17 17 17 16 16 15 16 16 15 15 15
Wind_Direction
325 304 298 24 50 73 257 264 156 101 58 344 30 79 120 65 71 167 192 96 126 143 156 156 155 154 154 149 147 144 144 145 156 163 167 164 169 177 185 179 161 166 167 167 177 163 155 146 170
319 309 40 56 92 72 269 256 96 73 159 83 55 72 67 63 78 123 79 120 138 148 155 160 157 158 159 155 153 153 157 159 161 165 175 181 187 204 203 178 177 172 169 195 190 165 164 148 148
297 193 73 108 173 188 212 44 136 134 84 67 99 65 90 125 106 125 166 136 126 149 159 160 160 163 164 162 162 165 167 168 171 176 177 179 187 202 180 179 167 176 173 224 203 165 157 168 164
330 15 11 95 252 268 286 140 129 95 25 59 109 65 51 348 94 136 138 150 132 158 162 160 165 169 170 170 173 173 173 176 178 184 192 193 196 181 152 139 170 166 222 238 205 167 169 151 191
25 66 75 208 252 255 157 136 77 64 124 183 91 126 97 35 81 123 129 121 137 119 147 164 168 172 175 176 179 179 180 181 187 193 195 198 186 189 173 177 192 211 236 262 208 173 139 156 191
12 96 66 220 239 283 47 5 81 53 318 249 95 109 180 121 89 65 152 124 143 137 139 154 164 170 173 177 181 184 186 187 195 199 198 198 187 197 177 185 208 224 243 257 208 178 160 167 185
123 91 222 249 255 296 356 319 81 87 306 280 291 121 155 92 170 42 103 129 104 128 131 141 156 168 173 177 183 186 191 192 201 206 205 200 199 207 217 210 213 226 227 238 208 196 179 172 190
112 102 290 253 243 239 293 19 120 85 273 271 11 180 171 210 183 171 62 110 119 118 127 162 158 163 163 171 188 193 199 202 208 209 210 207 208 210 217 207 217 230 222 225 230 208 194 183 194
44 57 259 275 344 127 244 76 343 155 289 316 252 142 167 165 164 131 90 76 94 132 148 189 141 174 178 186 193 197 202 204 206 208 212 214 211 217 217 213 213 226 224 219 227 217 208 189 192
100 140 232 246 56 8 345 34 343 343 310 283 288 102 157 162 162 161 174 195 153 136 97 95 102 168 153 175 179 201 203 214 206 198 200 212 206 210 217 213 218 222 223 218 217 212 212 204 187
198 206 183 8 108 32 331 327 299 208 256 232 229 274 209 173 164 171 196 173 181 152 120 120 123 115 100 89 195 201 197 199 213 224 210 204 214 218 218 214 221 222 227 226 221 216 208 194 192
208 266 329 182 78 30 311 333 309 229 227 217 256 246 130 165 180 187 202 218 144 123 121 116 80 35 192 122 89 357 336 268 233 207 202 200 212 215 215 217 214 210 207 210 208 208 203 196 196
210 295 333 333 172 222 253 257 248 265 264 264 285 307 244 179 195 220 193 153 137 123 159 75 96 79 153 144 96 334 304 312 307 274 234 197 208 221 225 227 210 209 210 209 210 215 215 207 205
236 287 280 276 236 232 256 255 20 268 255 235 239 256 246 225 204 229 242 182 151 104 132 147 96 69 73 156 191 245 269 280 286 279 269 254 223 202 207 221 234 234 220 216 216 211 213 219 213
318 315 307 282 214 227 27 276 226 242 311 215 234 247 259 223 216 216 216 168 153 149 138 140 133 105 79 50 276 261 268 277 279 278 276 258 237 234 206 204 219 232 221 239 258 233 222 216 221
257 177 340 342 66 236 79 272 286 268 179 233 245 241 228 231 214 199 180 178 149 141 136 125 114 103 124 236 260 271 269 266 265 265 267 268 257 225 211 213 213 220 226 222 228 233 237 244 227
287 233 201 286 92 303 190 280 271 237 229 250 242 235 219 224 220 195 191 168 165 152 143 129 124 158 199 226 231 240 247 244 246 252 255 262 258 252 212 210 217 214 220 213 216 232 229 242 244
203 234 310 287 342 316 251 266 271 260 265 261 247 236 229 221 221 213 164 160 145 135 138 149 158 219 315 316 317 302 292 274 261 257 252 253 252 250 240 229 216 207 211 218 218 235 233 234 241
139 230 262 282 289 293 247 284 287 287 252 265 248 239 223 186 148 122 127 130 118 118 108 74 80 24 35 353 313 300 258 290 290 274 264 270 269 258 243 235 236 215 211 211 213 218 221 244 248
143 161 271 286 23 341 322 290 281 293 251 248 211 139 141 122 110 110 114 100 94 86 84 66 49 15 338 319 289 271 268 274 258 266 279 276 277 281 283 260 247 234 231 222 213 210 224 228 223
219 207 221 215 324 16 325 297 318 322 56 55 56 101 119 136 133 126 119 129 108 113 105 77 359 322 313 306 316 322 321 320 317 301 295 288 293 289 279 268 257 257 243 238 222 215 214 228 222
211 213 99 50 47 265 27 278 299 325 299 207 179 114 154 152 138 144 147 135 159 171 168 194 311 302 296 316 312 295 270 284 253 263 261 281 281 281 279 277 276 269 259 252 236 224 221 224 223
201 57 72 74 84 56 336 75 271 297 337 225 192 192 180 166 147 155 168 152 167 156 194 242 312 314 311 311 298 286 281 263 265 278 287 288 280 273 271 271 278 271 268 264 256 242 230 232 231
152 93 42 56 89 35 253 125 288 19 346 357 130 188 191 173 133 125 131 130 192 139 18 358 336 310 316 309 300 299 297 302 307 304 297 294 291 291 286 284 278 276 274 267 264 260 254 240 238
82 73 339 351 8 216 209 42 245 313 312 282 145 153 124 118 122 142 171 273 248 341 353 338 348 309 296 311 333 332 312 301 301 305 300 297 294 295 295 295 300 301 303 289 275 261 250 248 252
187 153 154 208 264 253 359 238 315 323 32 37 72 82 86 90 113 158 239 258 301 342 342 341 326 322 346 348 328 312 302 304 301 299 300 299 298 293 291 287 285 283 282 278 280 280 279 269 267
175 152 150 102 40 55 237 271 276 23 30 52 49 58 93 121 193 301 312 24 320 318 321 340 7 347 336 320 315 305 303 304 302 299 293 294 290 288 285 283 284 281 281 279 274 267 270 275 258
118 155 82 12 339 286 292 281 200 25 68 71 70 86 224 207 5 324 326 320 305 315 358 23 353 327 313 316 314 313 312 306 298 293 297 295 290 286 281 278 274 272 269 266 264 261 269 263 265
39 127 82 97 159 187 246 260 211 176 173 117 161 314 311 277 276 277 314 306 318 359 13 336 324 307 317 319 309 307 309 302 298 291 293 286 283 278 275 272 268 266 263 258 262 264 244 254 253
161 176 158 135 252 232 154 269 238 199 168 279 5 272 278 281 291 286 297 316 348 348 338 322 312 302 309 316 311 305 306 297 295 293 291 284 278 275 272 270 267 263 258 252 252 254 253 244 250